This demonstration page uses our WeatherBlox Daily Observations layout. Learn more.

Left ArrowRight Arrow

Hourly Observations for May 14, 2020

Temp ( °F °C ) Dew Point ( °F °C ) Humidity (%) Winds ( mph kmh ) Pressure ( in mb ) Visibility ( mi km ) Precip ( " mm )
12:03 am 00:03 Cloudy with Fog 52 11 52 11 100 100 E 7 11 29.82 1010 0 0 0.00 0.00
12:56 am 00:56 Cloudy with Fog 51 10.6 50 10 96 96 E 9 15 29.81 1010 0 0 0.00 0.00
1:56 am 01:56 Cloudy with Fog 51 10.6 50 10 96 96 ENE 7 11 29.84 1010 0 0 0.00 0.00
2:56 am 02:56 Cloudy with Fog 51 10.6 51 10.6 100 100 NNE 6 9 29.81 1010 0 0 0.00 0.00
3:47 am 03:47 Cloudy with Fog 52 11 52 11 100 100 E 3 6 29.81 1009 1 1 0.00 0.00
3:56 am 03:56 Cloudy with Mist and Fog 51 10.6 51 10.6 100 100 ENE 3 6 29.80 1009 1 1 0.00 0.00
4:09 am 04:09 Cloudy with Mist and Fog 52 11 52 11 100 100 N 5 7 29.81 1009 1 2 0.00 0.00
4:18 am 04:18 Cloudy with Mist and Fog 52 11 52 11 100 100 N 7 11 29.81 1009 1 2 0.00 0.00
4:26 am 04:26 Cloudy with Mist and Fog 52 11 52 11 100 100 N 6 9 29.81 1009 3 5 0.00 0.00
4:47 am 04:47 Cloudy with Mist and Fog 50 10 50 10 100 100 N 6 9 29.82 1010 2 3 0.00 0.00
4:56 am 04:56 Cloudy with Mist and Fog 50 10 50 10 100 100 N 5 7 29.81 1010 4 6 0.00 0.00
5:17 am 05:17 Cloudy with Mist and Fog 50 10 50 10 100 100 N 5 7 29.83 1010 6 10 0.00 0.00
5:49 am 05:49 Cloudy 50 10 50 10 100 100 NW 5 7 29.82 1010 7 11 0.00 0.00
5:56 am 05:56 Mostly Cloudy 50 10 50 10 100 100 NNW 3 6 29.81 1009 7 11 0.00 0.00
6:13 am 06:13 Mostly Cloudy with Mist and Fog 50 10 50 10 100 100 NW 8 13 29.83 1010 5 8 0.00 0.00
6:56 am 06:56 Cloudy 49 9.4 49 9.4 100 100 NNW 9 15 29.83 1010 10 16 0.00 0.00
7:40 am 07:40 Cloudy 48 9 48 9 100 100 N 8 13 29.86 1011 10 16 0.00 0.00
7:48 am 07:48 Cloudy 48 9 48 9 100 100 N 8 13 29.87 1012 9 14 0.00 0.00
7:56 am 07:56 Cloudy 48 8.9 48 8.9 100 100 N 8 13 29.85 1011 9 14 0.00 0.00
8:43 am 08:43 Cloudy 50 10 48 9 94 94 NNW 6 9 29.88 1012 8 13 0.00 0.00
8:56 am 08:56 Cloudy with Mist and Fog 51 10.6 51 10.6 100 100 N 6 9 29.86 1011 6 10 0.00 0.00
9:37 am 09:37 Mostly Sunny 55 13 54 12 94 94 NNE 6 9 29.84 1011 10 16 0.00 0.00
9:56 am 09:56 Sunny 59 15 53 11.7 81 81 NNE 7 11 29.85 1011 10 16 0.00 0.00
10:56 am 10:56 Sunny 64 17.8 52 11.1 65 65 E 9 15 29.83 1010 10 16 0.00 0.00
11:56 am 11:56 Sunny 68 20 52 11.1 57 57 NNE 5 7 29.82 1010 10 16 0.00 0.00
12:56 pm 12:56 Sunny 72 22.2 53 11.7 52 52 VRB 5 7 29.81 1009 10 16 0.00 0.00
1:56 pm 13:56 Sunny 74 23.3 53 11.7 48 48 N 6 9 29.79 1009 10 16 0.00 0.00
2:56 pm 14:56 Sunny 76 24.4 51 10.6 42 42 VRB 7 11 29.78 1009 10 16 0.00 0.00
3:56 pm 15:56 Sunny 78 25.6 50 10 37 37 ENE 9 15 29.77 1008 10 16 0.00 0.00
4:56 pm 16:56 Sunny 77 25 50 10 39 39 NNE 10 17 29.76 1008 10 16 0.00 0.00
5:56 pm 17:56 Sunny 77 25 50 10 39 39 NE 12 19 29.77 1008 10 16 0.00 0.00
6:56 pm 18:56 Sunny 76 24.4 50 10 40 40 NE 13 20 29.78 1009 10 16 0.00 0.00
7:56 pm 19:56 Sunny 72 22.2 51 10.6 48 48 ENE 8 13 29.80 1009 10 16 0.00 0.00
8:56 pm 20:56 Clear 67 19.4 50 10 55 55 NE 9 15 29.82 1010 10 16 0.00 0.00
9:56 pm 21:56 Clear 64 17.8 50 10 60 60 NNE 15 24 29.84 1011 10 16 0.00 0.00
10:56 pm 22:56 Clear 60 15.6 49 9.4 67 67 NNE 14 22 29.86 1011 10 16 0.00 0.00
11:56 pm 23:56 Clear 58 14.4 47 8.3 67 67 NNE 13 20 29.86 1011 10 16 0.00 0.00

Powered by AerisWeather